This demonstration page uses our WeatherBlox Daily Observations layout. Learn more.

Left ArrowRight Arrow

41.12389, -100.76542

Hourly Observations for November 6, 2015

Temp ( °F °C ) Dew Point ( °F °C ) Humidity (%) Winds ( mph kmh ) Pressure ( in mb ) Visibility ( mi km ) Precip ( " mm )
12:53 am 00:53 Clear 27 -2.8 25 -3.9 92 92 NW 7 11 30.10 1019 10 16 0.00 0.00
1:53 am 01:53 Clear 27 -2.8 24 -4.4 89 89 WSW 8 13 30.10 1019 10 16 0.00 0.00
2:53 am 02:53 Clear 27 -2.8 24 -4.4 89 89 Calm 30.11 1020 10 16 0.00 0.00
3:53 am 03:53 Clear 26 -3.3 23 -5 88 88 NW 5 7 30.10 1019 10 16 0.00 0.00
4:53 am 04:53 Clear 28 -2.2 25 -3.9 88 88 WNW 7 11 30.14 1021 10 16 0.00 0.00
5:53 am 05:53 Clear 30 -1.1 27 -2.8 88 88 WSW 3 6 30.16 1021 10 16 0.00 0.00
6:53 am 06:53 Cloudy 31 -0.6 28 -2.2 89 89 NNW 3 6 30.17 1022 10 16 0.00 0.00
7:53 am 07:53 Cloudy 32 0 29 -1.7 88 88 NW 3 6 30.21 1023 10 16 0.00 0.00
8:53 am 08:53 Mostly Cloudy 34 1.1 30 -1.1 85 85 NW 3 6 30.25 1024 10 16 0.00 0.00
9:53 am 09:53 Mostly Cloudy 38 3.3 32 0 79 79 NW 6 9 30.26 1025 10 16 0.00 0.00
10:53 am 10:53 Cloudy 41 5 34 1.1 76 76 W 7 11 30.27 1025 10 16 0.00 0.00
11:53 am 11:53 Cloudy with Light Rain 42 5.6 34 1.1 73 73 W 8 13 30.28 1026 10 16 0.00 0.03
12:06 pm 12:06 Cloudy with Light Rain 41 5 36 2 81 81 W 9 15 30.27 1025 10 16 0.00 0.00
12:53 pm 12:53 Cloudy with Light Rain 42 5.6 36 2.2 79 79 WSW 9 15 30.27 1025 10 16 0.01 0.25
1:53 pm 13:53 Cloudy 43 6.1 36 2.2 76 76 W 8 13 30.26 1025 10 16 0.00 0.03
2:53 pm 14:53 Cloudy 44 6.7 35 1.7 71 71 W 9 15 30.25 1024 10 16 0.00 0.00
3:53 pm 15:53 Cloudy 43 6.1 35 1.7 74 74 W 9 15 30.27 1025 10 16 0.00 0.00
4:53 pm 16:53 Partly Cloudy 43 6.1 35 1.7 74 74 W 6 9 30.26 1025 10 16 0.00 0.00
5:53 pm 17:53 Clear 38 3.3 33 0.6 83 83 WSW 7 11 30.29 1026 10 16 0.00 0.00
6:53 pm 18:53 Clear 37 2.8 33 0.6 86 86 WSW 7 11 30.33 1027 10 16 0.00 0.00
7:53 pm 19:53 Clear 32 0 29 -1.7 88 88 NW 3 6 30.35 1028 10 16 0.00 0.00
8:53 pm 20:53 Clear 30 -1.1 28 -2.2 92 92 WNW 6 9 30.37 1029 10 16 0.00 0.00
9:53 pm 21:53 Clear 28 -2.2 26 -3.3 92 92 NW 7 11 30.38 1029 10 16 0.00 0.00
10:53 pm 22:53 Clear 27 -2.8 26 -3.3 96 96 NW 6 9 30.40 1029 10 16 0.00 0.00
11:18 pm 23:18 Clear with Mist and Fog 26 -3.3 24 -4.4 92 92 NW 3 6 30.48 1032 2 3 0.00 0.00
11:29 pm 23:29 Clear with Mist and Fog 26 -3.3 25 -3.9 96 96 NW 5 7 30.48 1032 1 2 0.00 0.00
11:53 pm 23:53 Clear with Mist and Fog 25 -3.9 23 -5 92 92 NW 6 9 30.41 1030 3 4 0.00 0.00

Powered by AerisWeather